EA2DK Weather Reports


Display with metric or nautical units.
time (UTC)temp
F
wind
direction
speed
MPH
gust
MPH
rain 1hr
in
rain 24hr
in
rain mn
in
humidity
%
barometer
mb
20260503210005 61 216 1.0 3.0 0.00 0.00 0.00 64 1015.0
20260503201504 62 272 1.0 3.0 0.00 0.00 0.00 63 1015.1
20260503200005 62 272 1.0 3.0 0.00 0.00 0.00 63 1015.0
20260503194504 62 272 1.0 3.0 0.00 0.00 0.00 63 1014.9
20260503193004 62 276 0.0 8.0 0.00 0.00 0.00 63 1014.7
20260503190004 63 280 6.0 9.0 0.00 0.00 0.00 62 1014.3
20260503184504 64 271 0.0 6.0 0.00 0.00 0.00 63 1014.1
20260503183004 64 273 0.0 3.0 0.00 0.00 0.00 62 1013.7
20260503181505 64 271 1.0 3.0 0.00 0.00 0.00 62 1013.6
20260503180004 65 271 0.0 3.0 0.00 0.00 0.00 61 1013.4
20260503174504 66 311 2.0 3.0 0.00 0.00 0.00 59 1013.2
20260503173004 66 312 0.0 3.0 0.00 0.00 0.00 59 1013.2
20260503171505 66 316 2.0 6.0 0.00 0.00 0.00 58 1013.2
20260503081504 64 115 2.0 3.0 0.00 0.00 0.00 59 1016.1
20260503071504 59 157 0.0 2.0 0.00 0.00 0.00 68 1016.5
20260503054504 56 156 1.0 3.0 0.00 0.00 0.00 67 1016.0
20260503053004 56 156 1.0 3.0 0.00 0.00 0.00 67 1016.0
20260503051505 56 201 2.0 3.0 0.00 0.00 0.00 66 1015.9
20260503050005 56 201 1.0 2.0 0.00 0.00 0.00 66 1015.8
20260503044504 56 201 2.0 3.0 0.00 0.00 0.00 66 1015.8
20260503043004 56 201 1.0 3.0 0.00 0.00 0.00 65 1015.9
20260503041505 56 201 3.0 5.0 0.00 0.00 0.00 65 1016.1
20260503040004 56 201 1.0 3.0 0.00 0.00 0.00 65 1016.0
20260503034504 57 201 0.0 2.0 0.00 0.00 0.00 65 1016.0
20260503033004 57 201 0.0 3.0 0.00 0.00 0.00 65 1015.9
20260503031504 57 201 1.0 3.0 0.00 0.00 0.00 64 1015.9
20260503030004 58 201 1.0 3.0 0.00 0.00 0.00 64 1016.0
20260503024504 58 201 2.0 3.0 0.00 0.00 0.00 64 1016.1
20260503023005 58 228 1.0 3.0 0.00 0.00 0.00 63 1016.1
20260503021504 58 228 0.0 3.0 0.00 0.00 0.00 63 1016.3
20260503020004 59 228 1.0 2.0 0.00 0.00 0.00 63 1016.3
20260503014504 59 228 1.0 3.0 0.00 0.00 0.00 63 1016.4
20260503013005 60 229 1.0 3.0 0.00 0.00 0.00 62 1016.4
20260503011504 60 265 0.0 3.0 0.00 0.00 0.00 62 1016.5
20260503004504 61 265 0.0 3.0 0.00 0.00 0.00 62 1016.7
20260503003004 61 265 2.0 12.0 0.00 0.00 0.00 62 1016.7
20260502231504 64 208 5.0 10.0 0.00 0.00 0.00 54 1017.0
20260502230004 64 197 5.0 12.0 0.00 0.00 0.00 55 1016.8
20260502224504 64 176 6.0 12.0 0.00 0.00 0.00 55 1016.6
20260502223005 64 185 6.0 9.0 0.00 0.00 0.00 55 1016.6
20260502221504 63 184 6.0 12.0 0.00 0.00 0.00 55 1016.4
20260502220004 62 196 5.0 9.0 0.00 0.00 0.00 57 1016.6
20260502214504 62 178 3.0 6.0 0.00 0.00 0.00 58 1016.6